パンスターズ彗星

C/2013 X1 ( PanSTARRS )

English version
Home page
Updated on April 8, 2017

---------------------------------------------------------------------

・ プロフィール

発見日 2013年12月4日
発見光度 20.2等
発見者 Pan-STARRS 1 telescope (Haleakala)

・ 写真集

・ 軌道要素

Epoch 2016 Apr. 2.0 TT = JDT 2457480.5
T 2016 Apr. 20.72558 TT                                 MPCW
q   1.3142744            (2000.0)            P               Q
z  -0.0007487      Peri.  164.45770     +0.82526313     -0.52102678
                   Node   130.95580     -0.54401909     -0.62985964
e   1.0009839      Incl.  163.23177     -0.15160473     -0.57602772
From 2926 observations 2014 Jan. 28-2017 Feb. 28, mean residual 0".6.
     Nongravitational parameters A1 = +2.11, A2 = +0.3641, A3 = -0.4911.

・ 星図

・ 光度変化

        m1 = 5.5 + 5 logΔ + 10.0 log r  [    ,-290]  (              〜2015年 7月 5日)
        m1 = 4.0 + 5 logΔ + 12.5 log r  [-290, -66]  (2015年 7月 5日〜2016年 2月14日)
        m1 = 5.6 + 5 logΔ +  5.0 log r  [ -66,   0]  (2016年 2月14日〜2016年 4月20日)
        m1 = 5.0 + 5 logΔ + 10.0 log r  [   0,  60]  (2016年 4月20日〜2016年 6月19日)
        m1 = 3.0 + 5 logΔ + 20.0 log r  [  60, 150]  (2016年 6月19日〜2016年 9月17日)
        m1 = 7.0 + 5 logΔ + 10.0 log r  [ 150,    ]  (2016年 9月17日〜              )

---------------------------------------------------------------------

軌道要素はM.P.E.C. 2017-E59に掲載されたものです。
星図はステラナビゲータ Ver.8 (アストロアーツ) で作成したものです。
光度グラフはComet for Windowsで作成したものです。

---------------------------------------------------------------------

Copyright(C) Seiichi Yoshida (comet@aerith.net). All rights reserved.